EW8945 Weather Reports


time (UTC)temp
C
wind
direction
speed
KPH
gust
KPH
rain 1hr
cm
rain 24hr
cm
rain mn
cm
humidity
%
barometer
mb
20260506211628 23 284 6.4 12.9 0.00 0.00 0.00 59 1017.6
20260506211136 22 322 4.8 12.9 0.00 0.00 0.00 58 1017.6
20260506210628 22 348 6.4 14.5 0.00 0.00 0.00 57 1017.7
20260506210141 22 261 6.4 16.1 0.00 0.00 0.00 61 1017.7
20260506205623 22 329 6.4 16.1 0.00 0.00 0.00 59 1017.7
20260506205131 21 334 6.4 14.5 0.00 0.00 0.00 60 1017.7
20260506204622 22 37 8.0 14.5 0.00 0.00 0.00 58 1017.9
20260506204151 22 342 6.4 14.5 0.00 0.00 0.00 58 1017.9
20260506203623 22 321 4.8 11.3 0.00 0.00 0.00 58 1017.9
20260506203131 22 15 6.4 16.1 0.00 0.00 0.00 61 1018.0
20260506202623 22 331 8.0 17.7 0.00 0.00 0.00 58 1018.0
20260506202131 21 303 6.4 17.7 0.00 0.00 0.00 60 1018.2
20260506201621 21 350 6.4 14.5 0.00 0.00 0.00 61 1018.2
20260506201131 21 26 8.0 17.7 0.00 0.00 0.00 61 1018.2
20260506200621 21 319 6.4 17.7 0.00 0.00 0.00 60 1018.3
20260506200131 21 294 4.8 12.9 0.00 0.00 0.00 60 1018.3
20260506195622 21 319 6.4 17.7 0.00 0.00 0.00 63 1018.4
20260506195131 21 315 8.0 17.7 0.00 0.00 0.00 60 1018.4
20260506194624 21 54 6.4 14.5 0.00 0.00 0.00 63 1018.4
20260506194138 21 317 6.4 14.5 0.00 0.00 0.00 64 1018.5
20260506194132 21 15 4.8 14.5 0.00 0.00 0.00 60 1018.5
20260506193736 21 89 8.0 14.5 0.00 0.00 0.00 64 1018.5
20260506193131 21 25 8.0 14.5 0.00 0.00 0.00 64 1018.5
20260506192737 20 52 6.4 14.5 0.00 0.00 0.00 64 1018.6
20260506192248 21 73 6.4 16.1 0.00 0.00 0.00 65 1018.7
20260506191735 20 309 6.4 16.1 0.00 0.00 0.00 68 1018.7
20260506190616 19 45 6.4 16.1 0.00 0.00 0.00 66 1018.8
20260506190128 19 351 4.8 16.1 0.00 0.00 0.00 66 1018.8
20260506185616 19 75 4.8 17.7 0.00 0.00 0.00 66 1018.8
20260506185129 20 355 4.8 17.7 0.00 0.00 0.00 68 1018.9
20260506184628 20 292 6.4 16.1 0.00 0.00 0.00 66 1018.9
20260506184613 19 330 4.8 11.3 0.00 0.00 0.00 66 1018.8
20260506183613 19 355 6.4 16.1 0.00 0.00 0.00 68 1018.9
20260506183124 19 327 4.8 12.9 0.00 0.00 0.00 70 1019.0
20260506182633 18 300 4.8 11.3 0.00 0.00 0.00 71 1019.1
20260506182613 18 355 4.8 12.9 0.00 0.00 0.00 72 1019.1
20260506182124 18 241 4.8 9.7 0.00 0.00 0.00 69 1019.1
20260506181124 18 329 4.8 11.3 0.00 0.00 0.00 68 1019.1
20260506180611 18 263 4.8 14.5 0.00 0.00 0.00 72 1019.1
20260506180125 18 260 4.8 14.5 0.00 0.00 0.00 72 1019.1
20260506175612 17 135 3.2 8.0 0.00 0.00 0.00 71 1019.2
20260506175125 17 277 4.8 14.5 0.00 0.00 0.00 71 1019.1
20260506174612 17 292 6.4 14.5 0.00 0.00 0.00 70 1019.2
20260506174124 17 320 4.8 12.9 0.00 0.00 0.00 72 1019.2
20260506173610 17 264 4.8 9.7 0.00 0.00 0.00 73 1019.2
20260506173121 16 355 4.8 9.7 0.00 0.00 0.00 71 1019.2
20260506172609 17 341 3.2 9.7 0.00 0.00 0.00 74 1019.2
20260506172123 16 332 3.2 11.3 0.00 0.00 0.00 74 1019.3
20260506171608 16 346 3.2 11.3 0.00 0.00 0.00 75 1019.3
20260506171119 16 309 4.8 12.9 0.00 0.00 0.00 78 1019.4
20260506170609 16 300 6.4 12.9 0.00 0.00 0.00 77 1019.4
20260506170127 16 257 4.8 9.7 0.00 0.00 0.00 77 1019.4
20260506170119 16 251 4.8 12.9 0.00 0.00 0.00 75 1019.3
20260506165105 16 286 3.2 8.0 0.00 0.00 0.00 78 1019.4
20260506164608 15 322 3.2 9.7 0.00 0.00 0.00 78 1019.4
20260506164603 15 238 3.2 9.7 0.00 0.00 0.00 79 1019.4
20260506163609 15 335 3.2 8.0 0.00 0.00 0.00 78 1019.5
20260506163605 15 336 3.2 8.0 0.00 0.00 0.00 78 1019.4
20260506162609 15 263 3.2 8.0 0.00 0.00 0.00 79 1019.4
20260506162604 15 258 3.2 8.0 0.00 0.00 0.00 78 1019.4
20260506161610 15 340 4.8 12.9 0.00 0.00 0.00 79 1019.4
20260506161605 15 250 3.2 9.7 0.00 0.00 0.00 79 1019.4
20260506160601 15 300 4.8 14.5 0.00 0.00 0.00 80 1019.4
20260506160103 15 319 3.2 14.5 0.00 0.00 0.00 80 1019.4
20260506155601 15 308 3.2 9.7 0.00 0.00 0.00 80 1019.4
20260506155102 15 273 4.8 9.7 0.00 0.00 0.00 81 1019.4
20260506154602 14 288 4.8 11.3 0.00 0.00 0.00 81 1019.3
20260506154101 14 284 3.2 11.3 0.00 0.00 0.00 81 1019.3
20260506153601 14 283 3.2 9.7 0.00 0.00 0.00 81 1019.4
20260506153101 14 285 3.2 8.0 0.00 0.00 0.00 82 1019.4
20260506152607 14 294 3.2 9.7 0.00 0.00 0.00 83 1019.3
20260506152601 14 296 3.2 9.7 0.00 0.00 0.00 82 1019.4
20260506151620 13 301 4.8 8.0 0.00 0.00 0.00 83 1019.3
20260506151559 13 267 4.8 9.7 0.00 0.00 0.00 83 1019.3
20260506151100 13 292 4.8 9.7 0.00 0.00 0.00 83 1019.3
20260506150100 13 290 3.2 9.7 0.00 0.00 0.00 83 1019.4
20260506145559 13 273 3.2 9.7 0.00 0.00 0.00 83 1019.4
20260506145118 13 280 3.2 6.4 0.00 0.00 0.00 83 1019.4
20260506145059 13 282 3.2 6.4 0.00 0.00 0.00 83 1019.4
20260506144119 13 334 3.2 6.4 0.00 0.00 0.00 83 1019.2
20260506144059 13 297 3.2 6.4 0.00 0.00 0.00 83 1019.3
20260506143121 13 291 3.2 6.4 0.00 0.00 0.00 84 1019.3
20260506143100 13 329 3.2 6.4 0.00 0.00 0.00 83 1019.2
20260506142057 13 281 3.2 9.7 0.00 0.00 0.00 84 1019.2
20260506141557 13 299 3.2 9.7 0.00 0.00 0.00 84 1019.2
20260506141057 13 300 4.8 6.4 0.00 0.00 0.00 84 1019.1
20260506140604 13 308 4.8 12.9 0.00 0.00 0.00 84 1019.1
20260506140558 13 308 4.8 11.3 0.00 0.00 0.00 84 1019.1
20260506135557 13 296 4.8 12.9 0.00 0.00 0.00 84 1019.0
20260506135058 13 274 4.8 8.0 0.00 0.00 0.00 84 1018.9
20260506134600 13 300 4.8 11.3 0.00 0.00 0.00 84 1018.7
20260506134554 13 295 4.8 11.3 0.00 0.00 0.00 84 1018.8
20260506134226 13 281 4.8 11.3 0.00 0.00 0.00 84 1018.6
20260506133711 13 288 3.2 9.7 0.00 0.00 0.00 84 1018.6
20260506132556 13 280 3.2 6.4 0.00 0.00 0.00 84 1018.5
20260506132056 13 280 3.2 6.4 0.00 0.00 0.00 84 1018.4
20260506131557 13 288 3.2 6.4 0.00 0.00 0.00 84 1018.4
20260506131115 13 329 3.2 6.4 0.00 0.00 0.00 84 1018.3
20260506131055 13 330 3.2 6.4 0.00 0.00 0.00 84 1018.3
20260506130557 13 329 3.2 6.4 0.00 0.00 0.00 84 1018.4
20260506125553 13 329 3.2 6.4 0.00 0.00 0.00 84 1018.3
20260506125053 13 329 3.2 6.4 0.00 0.00 0.00 84 1018.3
20260506124553 13 329 1.6 4.8 0.00 0.00 0.00 83 1018.2
20260506124114 13 330 3.2 6.4 0.00 0.00 0.00 83 1018.2
20260506124054 13 329 3.2 4.8 0.00 0.00 0.00 83 1018.2
20260506123053 13 329 3.2 6.4 0.00 0.00 0.00 83 1018.2
20260506122553 13 329 3.2 6.4 0.00 0.00 0.00 83 1018.2
20260506122114 13 329 1.6 6.4 0.00 0.00 0.00 83 1018.2
20260506122053 13 329 3.2 6.4 0.00 0.00 0.00 83 1018.2
20260506121053 13 329 1.6 4.8 0.00 0.00 0.00 83 1018.2
20260506120555 13 329 1.6 4.8 0.00 0.00 0.00 83 1018.1
20260506120551 13 329 1.6 4.8 0.00 0.00 0.00 83 1018.0
20260506115550 13 329 1.6 4.8 0.00 0.00 0.00 83 1018.0
20260506115049 13 329 3.2 4.8 0.00 0.00 0.00 83 1018.0
20260506114550 13 329 1.6 4.8 0.00 0.00 0.00 83 1018.0
20260506114048 13 329 3.2 4.8 0.00 0.00 0.00 83 1018.0
20260506113549 13 329 3.2 4.8 0.00 0.00 0.00 83 1017.9
20260506113543 13 329 3.2 6.4 0.00 0.00 0.00 83 1017.8
20260506112548 13 329 1.6 4.8 0.00 0.00 0.00 83 1017.8
20260506112542 13 329 3.2 6.4 0.00 0.00 0.00 83 1017.8
20260506111544 13 329 1.6 4.8 0.00 0.00 0.00 83 1017.8
20260506111043 13 329 1.6 4.8 0.00 0.00 0.00 83 1017.9
20260506110542 13 329 0.0 3.2 0.00 0.00 0.00 83 1017.8
20260506110044 13 329 0.0 1.6 0.00 0.00 0.00 83 1017.7
20260506105544 13 330 0.0 1.6 0.00 0.00 0.00 83 1017.7
20260506105043 13 329 1.6 3.2 0.00 0.00 0.00 83 1017.6
20260506104543 13 329 1.6 3.2 0.00 0.00 0.00 83 1017.6
20260506104042 13 329 1.6 4.8 0.00 0.00 0.00 83 1017.6
20260506103544 13 329 1.6 4.8 0.00 0.00 0.00 83 1017.6
20260506103043 13 329 1.6 4.8 0.00 0.00 0.00 83 1017.6
20260506102543 13 329 1.6 3.2 0.00 0.00 0.00 83 1017.6
20260506102042 13 329 0.0 3.2 0.00 0.00 0.00 83 1017.6
20260506101543 13 330 0.0 0.0 0.00 0.00 0.00 83 1017.6
20260506101043 13 329 0.0 0.0 0.00 0.00 0.00 83 1017.7
20260506100542 13 329 0.0 0.0 0.00 0.00 0.00 83 1017.7
20260506100050 13 329 1.6 3.2 0.00 0.00 0.00 83 1017.6
20260506100044 13 329 0.0 3.2 0.00 0.00 0.00 83 1017.6
20260506095043 13 329 3.2 4.8 0.00 0.00 0.00 83 1017.6
20260506094544 13 329 3.2 4.8 0.00 0.00 0.00 83 1017.6
20260506094050 13 329 1.6 3.2 0.00 0.00 0.00 82 1017.7
20260506094044 13 329 1.6 3.2 0.00 0.00 0.00 83 1017.6
20260506093543 13 329 1.6 3.2 0.00 0.00 0.00 82 1017.6
20260506093041 13 329 1.6 4.8 0.00 0.00 0.00 82 1017.7
20260506092041 13 329 1.6 4.8 0.00 0.00 0.00 81 1017.8
20260506091542 13 329 1.6 4.8 0.00 0.00 0.00 81 1017.7
20260506091038 13 330 1.6 4.8 0.00 0.00 0.00 81 1017.7
20260506090539 13 329 1.6 4.8 0.00 0.00 0.00 81 1017.6
20260506090038 13 329 1.6 4.8 0.00 0.00 0.00 81 1017.6
20260506085539 13 329 1.6 4.8 0.00 0.00 0.00 81 1017.6
20260506085036 13 329 1.6 4.8 0.00 0.00 0.00 81 1017.6
20260506084537 13 329 3.2 8.0 0.00 0.00 0.00 81 1017.6
20260506084036 13 330 4.8 8.0 0.00 0.00 0.00 81 1017.6
20260506083537 13 297 3.2 6.4 0.00 0.00 0.00 81 1017.6
20260506083036 13 292 1.6 6.4 0.00 0.00 0.00 80 1017.6
20260506082539 13 355 4.8 6.4 0.00 0.00 0.00 80 1017.6
20260506082534 13 335 3.2 6.4 0.00 0.00 0.00 80 1017.6
20260506081536 13 340 3.2 8.0 0.00 0.00 0.00 80 1017.7
20260506081040 13 309 1.6 4.8 0.00 0.00 0.00 80 1017.6
20260506081035 13 348 3.2 8.0 0.00 0.00 0.00 80 1017.7
20260506073033 14 28 3.2 6.4 0.00 0.00 0.00 80 1017.4
20260506072534 14 355 3.2 6.4 0.00 0.00 0.00 80 1017.3
20260506072032 14 20 3.2 6.4 0.00 0.00 0.00 80 1017.3
20260506071532 14 19 3.2 8.0 0.00 0.00 0.00 80 1017.3
20260506071031 14 10 3.2 8.0 0.00 0.00 0.00 80 1017.2
20260506070530 14 346 3.2 8.0 0.00 0.00 0.00 80 1017.2
20260506061533 14 350 3.2 8.0 0.00 0.00 0.00 77 1016.8
20260506061526 14 322 3.2 6.4 0.00 0.00 0.00 78 1016.9
20260506060528 14 0 3.2 8.0 0.00 0.00 0.00 77 1016.7
20260506051028 15 319 1.6 6.4 0.00 0.00 0.00 76 1016.4
20260506051022 15 316 3.2 8.0 0.00 0.00 0.00 76 1016.4
20260506045023 15 0 3.2 6.4 0.00 0.00 0.00 76 1016.2
20260506044524 15 333 3.2 6.4 0.00 0.00 0.00 76 1016.2
20260506044519 15 323 3.2 6.4 0.00 0.00 0.00 75 1016.1
20260506043523 15 343 3.2 4.8 0.00 0.00 0.00 76 1016.1
20260506043518 15 343 1.6 4.8 0.00 0.00 0.00 75 1016.1
20260506043146 15 313 1.6 4.8 0.00 0.00 0.00 75 1016.0
20260506042517 15 313 1.6 4.8 0.00 0.00 0.00 75 1016.1
20260506041522 15 313 3.2 6.4 0.00 0.00 0.00 75 1015.8
20260506041518 15 313 1.6 4.8 0.00 0.00 0.00 75 1015.9
20260506041147 15 313 3.2 6.4 0.00 0.00 0.00 76 1015.8
20260506040018 15 331 3.2 6.4 0.00 0.00 0.00 75 1015.7
20260506035518 15 327 3.2 6.4 0.00 0.00 0.00 75 1015.7
20260506035016 15 349 3.2 6.4 0.00 0.00 0.00 75 1015.6
20260506034513 15 305 3.2 8.0 0.00 0.00 0.00 75 1015.5
20260506034018 15 317 3.2 8.0 0.00 0.00 0.00 75 1015.4
20260506034012 15 298 3.2 8.0 0.00 0.00 0.00 75 1015.5
20260506033013 15 315 4.8 8.0 0.00 0.00 0.00 75 1015.3
20260506032512 15 334 4.8 8.0 0.00 0.00 0.00 75 1015.2
20260506032012 15 355 3.2 8.0 0.00 0.00 0.00 74 1015.1
20260506031513 15 296 3.2 8.0 0.00 0.00 0.00 74 1015.1
20260506031014 15 319 3.2 8.0 0.00 0.00 0.00 74 1015.1
20260506030512 15 309 3.2 8.0 0.00 0.00 0.00 74 1015.0
20260506030015 15 343 3.2 8.0 0.00 0.00 0.00 74 1015.0
20260506025514 15 355 3.2 8.0 0.00 0.00 0.00 74 1014.9
20260506025014 15 323 4.8 8.0 0.00 0.00 0.00 74 1014.9
20260506024512 15 313 3.2 8.0 0.00 0.00 0.00 74 1014.7
20260506024018 15 348 3.2 6.4 0.00 0.00 0.00 74 1014.6
20260506024014 15 345 3.2 6.4 0.00 0.00 0.00 74 1014.7
20260506023018 15 355 3.2 4.8 0.00 0.00 0.00 74 1014.7
20260506023013 15 355 3.2 6.4 0.00 0.00 0.00 74 1014.6
20260506022013 15 320 3.2 8.0 0.00 0.00 0.00 75 1014.5
20260506021513 15 327 3.2 8.0 0.00 0.00 0.00 75 1014.5
20260506021014 15 300 3.2 8.0 0.00 0.00 0.00 75 1014.5
20260506020514 15 298 3.2 8.0 0.00 0.00 0.00 75 1014.6
20260506020019 15 301 3.2 6.4 0.00 0.00 0.00 75 1014.6
20260506020015 15 301 3.2 8.0 0.00 0.00 0.00 75 1014.6
20260506015014 15 339 4.8 8.0 0.00 0.00 0.00 74 1014.6
20260506014512 15 292 4.8 8.0 0.00 0.00 0.00 75 1014.7
20260506014013 15 309 4.8 11.3 0.00 0.00 0.00 74 1014.7
20260506013513 15 330 4.8 11.3 0.00 0.00 0.00 74 1014.7
20260506013013 15 305 4.8 11.3 0.00 0.00 0.00 74 1014.7
20260506012518 15 291 6.4 12.9 0.00 0.00 0.00 75 1014.6
20260506012513 15 319 4.8 12.9 0.00 0.00 0.00 75 1014.6
20260506012014 15 300 6.4 12.9 0.00 0.00 0.00 75 1014.6
20260506011013 16 292 4.8 11.3 0.00 0.00 0.00 74 1014.5
20260506010519 16 311 3.2 8.0 0.00 0.00 0.00 74 1014.5
20260506010513 16 241 3.2 11.3 0.00 0.00 0.00 74 1014.5
20260506005512 16 9 3.2 8.0 0.00 0.00 0.00 73 1014.5
20260506005012 16 196 3.2 6.4 0.00 0.00 0.00 73 1014.4
20260506004518 16 232 3.2 8.0 0.00 0.00 0.00 72 1014.5
20260506004513 16 232 3.2 8.0 0.00 0.00 0.00 73 1014.5
20260506003521 16 218 3.2 8.0 0.00 0.00 0.00 72 1014.3
20260506003511 16 240 4.8 8.0 0.00 0.00 0.00 72 1014.5
20260506003011 16 246 1.6 6.4 0.00 0.00 0.00 73 1014.3
20260506002625 16 228 1.6 4.8 0.00 0.00 0.00 73 1014.3
20260506001510 16 229 1.6 4.8 0.00 0.00 0.00 71 1014.2
20260506001009 16 228 3.2 6.4 0.00 0.00 0.00 73 1014.2
20260506000508 16 228 3.2 6.4 0.00 0.00 0.00 72 1014.2
20260506000009 16 265 1.6 4.8 0.00 0.00 0.00 72 1014.2
20260505235509 16 265 0.0 3.2 0.00 0.00 0.00 71 1014.1
20260505235008 16 265 1.6 4.8 0.00 0.00 0.00 73 1014.2
20260505234508 16 265 3.2 6.4 0.00 0.00 0.00 73 1014.2
20260505234008 16 266 3.2 6.4 0.00 0.00 0.00 73 1014.2
20260505233510 16 261 3.2 6.4 0.00 0.00 0.00 73 1014.3
20260505233013 16 281 1.6 4.8 0.00 0.00 0.00 71 1014.3
20260505233008 16 261 3.2 6.4 0.00 0.00 0.00 72 1014.3
20260505232009 16 281 1.6 6.4 0.00 0.00 0.00 72 1014.4
20260505231508 16 281 3.2 6.4 0.00 0.00 0.00 72 1014.4
20260505231006 16 281 3.2 6.4 0.00 0.00 0.00 72 1014.3
20260505230506 16 281 3.2 6.4 0.00 0.00 0.00 71 1014.4
20260505230006 16 348 3.2 8.0 0.00 0.00 0.00 71 1014.3
20260505225508 16 75 1.6 8.0 0.00 0.00 0.00 71 1014.4
20260505225007 16 152 1.6 6.4 0.00 0.00 0.00 72 1014.4
20260505224506 16 28 1.6 4.8 0.00 0.00 0.00 73 1014.4
20260505224007 16 28 1.6 4.8 0.00 0.00 0.00 72 1014.4
20260505223507 16 28 1.6 4.8 0.00 0.00 0.00 71 1014.5
20260505223005 16 28 3.2 6.4 0.00 0.00 0.00 72 1014.6
20260505222506 16 28 3.2 6.4 0.00 0.00 0.00 72 1014.5
20260505222005 16 327 3.2 8.0 0.00 0.00 0.00 72 1014.6
20260505221504 16 16 4.8 8.0 0.00 0.00 0.00 72 1014.6
20260505221006 16 13 4.8 11.3 0.00 0.00 0.00 72 1014.7
20260505220511 16 55 3.2 8.0 0.00 0.00 0.00 73 1014.6
20260505220506 16 18 4.8 11.3 0.00 0.00 0.00 72 1014.7
20260505215509 16 25 4.8 9.7 0.00 0.00 0.00 72 1014.7
20260505215504 16 348 4.8 9.7 0.00 0.00 0.00 72 1014.7
20260505214505 16 5 4.8 11.3 0.00 0.00 0.00 72 1014.7
20260505214009 16 34 6.4 14.5 0.00 0.00 0.00 72 1014.9
20260505214005 16 334 6.4 11.3 0.00 0.00 0.00 73 1014.8
20260505213003 16 28 4.8 14.5 0.00 0.00 0.00 72 1014.9
20260505212502 16 15 4.8 12.9 0.00 0.00 0.00 73 1014.9
20260505212003 16 28 4.8 12.9 0.00 0.00 0.00 72 1015.0